TimeCST,TemperatureF,Dew PointF,Humidity,Sea Level PressureIn,VisibilityMPH,Wind Direction,Wind SpeedMPH,Gust SpeedMPH,PrecipitationIn,Events,Conditions,WindDirDegrees,DateUTC
12:40 AM,21.2,19.4,93,30.04,5.0,NE,3.5,-,N/A,,Overcast,50,2013-02-07 06:40:00
12:53 AM,21.9,19.0,89,30.12,5.0,NE,3.5,-,N/A,,Overcast,40,2013-02-07 06:53:00
1:10 AM,21.2,19.4,93,30.04,4.0,NE,3.5,-,N/A,,Overcast,40,2013-02-07 07:10:00
1:53 AM,21.9,19.0,89,30.11,4.0,NE,5.8,-,N/A,,Overcast,40,2013-02-07 07:53:00
2:53 AM,21.9,19.0,89,30.12,6.0,NE,3.5,-,N/A,,Overcast,50,2013-02-07 08:53:00
3:53 AM,21.9,18.0,85,30.11,8.0,NNE,5.8,-,N/A,,Overcast,30,2013-02-07 09:53:00
4:53 AM,21.0,18.0,88,30.12,9.0,NE,5.8,-,N/A,,Overcast,40,2013-02-07 10:53:00
5:19 AM,21.2,17.6,86,30.05,9.0,NE,4.6,-,N/A,,Overcast,50,2013-02-07 11:19:00
5:37 AM,21.2,17.6,86,30.05,9.0,Calm,Calm,-,N/A,,Overcast,0,2013-02-07 11:37:00
5:53 AM,21.9,18.0,85,30.12,9.0,Calm,Calm,-,N/A,,Overcast,0,2013-02-07 11:53:00
6:53 AM,21.9,18.0,85,30.13,8.0,Variable,3.5,-,N/A,,Overcast,0,2013-02-07 12:53:00
7:31 AM,21.2,17.6,86,30.08,10.0,Variable,4.6,-,N/A,,Overcast,0,2013-02-07 13:31:00
7:53 AM,21.9,18.0,85,30.14,10.0,NE,5.8,-,N/A,,Overcast,40,2013-02-07 13:53:00
8:53 AM,21.9,18.0,85,30.16,10.0,Variable,5.8,-,N/A,,Overcast,0,2013-02-07 14:53:00
10:20 AM,23.0,19.4,86,30.10,10.0,NE,8.1,-,N/A,,Overcast,50,2013-02-07 16:20:00
10:53 AM,24.1,18.0,77,30.19,10.0,Variable,5.8,-,N/A,,Overcast,0,2013-02-07 16:53:00
11:25 AM,24.8,17.6,74,30.12,10.0,NE,9.2,-,N/A,,Overcast,40,2013-02-07 17:25:00
11:53 AM,24.1,18.0,77,30.18,10.0,Variable,6.9,-,N/A,,Overcast,0,2013-02-07 17:53:00
12:53 PM,24.1,18.0,77,30.18,10.0,Variable,4.6,-,N/A,,Overcast,0,2013-02-07 18:53:00
1:53 PM,25.0,18.0,75,30.16,10.0,Variable,6.9,-,N/A,,Overcast,0,2013-02-07 19:53:00
2:53 PM,24.1,18.0,77,30.16,10.0,NE,8.1,-,N/A,,Overcast,40,2013-02-07 20:53:00
3:53 PM,25.0,18.0,75,30.17,10.0,NNE,8.1,18.4,N/A,,Overcast,30,2013-02-07 21:53:00
4:25 PM,24.8,19.4,80,30.12,10.0,NNE,8.1,-,N/A,,Overcast,30,2013-02-07 22:25:00
4:53 PM,24.1,19.0,81,30.19,10.0,NE,8.1,17.3,N/A,,Overcast,40,2013-02-07 22:53:00
5:53 PM,24.1,19.0,81,30.22,10.0,Variable,6.9,-,N/A,,Overcast,0,2013-02-07 23:53:00
6:53 PM,24.1,18.0,77,30.24,10.0,Variable,4.6,-,N/A,,Overcast,0,2013-02-08 00:53:00
7:13 PM,24.8,17.6,74,30.18,10.0,NNE,11.5,20.7,N/A,,Overcast,30,2013-02-08 01:13:00
7:53 PM,23.0,17.1,78,30.25,10.0,NE,8.1,-,N/A,,Overcast,40,2013-02-08 01:53:00
8:53 PM,21.9,15.1,75,30.27,10.0,NE,6.9,-,N/A,,Overcast,50,2013-02-08 02:53:00
9:53 PM,19.9,12.9,74,30.28,10.0,Variable,4.6,-,N/A,,Mostly Cloudy,0,2013-02-08 03:53:00
10:53 PM,16.0,12.0,84,30.31,10.0,Calm,Calm,-,N/A,,Clear,0,2013-02-08 04:53:00
11:53 PM,10.9,7.0,84,30.33,10.0,Calm,Calm,-,N/A,,Overcast,0,2013-02-08 05:53:00